DW7533 Weather Reports


Display with metric or nautical units.
time (UTC)temp
F
wind
direction
speed
MPH
gust
MPH
rain 1hr
in
rain 24hr
in
rain mn
in
humidity
%
barometer
mb
20260510011305 62 26 5.0 9.0 0.00 0.00 0.00 65 1026.5
20260510010805 61 13 4.0 9.0 0.00 0.00 0.00 66 1026.5
20260510010305 61 51 6.0 9.0 0.00 0.00 0.00 66 1026.5
20260510005806 60 33 3.0 10.0 0.00 0.00 0.00 66 1026.5
20260510005306 60 18 6.0 12.0 0.00 0.00 0.00 67 1026.5
20260510004305 59 55 5.0 9.0 0.00 0.00 0.00 68 1026.5
20260510003305 59 35 4.0 10.0 0.00 0.00 0.00 68 1026.5
20260510002306 58 14 5.0 10.0 0.00 0.00 0.00 69 1026.5
20260510001805 58 41 4.0 12.0 0.00 0.00 0.00 69 1026.5
20260510001304 58 33 7.0 12.0 0.00 0.00 0.00 70 1026.5
20260510000804 57 33 5.0 10.0 0.00 0.00 0.00 70 1026.5
20260510000306 57 41 4.0 10.0 0.00 0.00 0.00 70 1026.5
20260509235805 57 52 4.0 13.0 0.00 0.00 0.00 71 1026.5
20260509235307 56 37 5.0 9.0 0.00 0.00 0.00 71 1026.5
20260509234806 56 49 5.0 10.0 0.00 0.00 0.00 71 1026.5
20260509234304 56 25 4.0 7.0 0.00 0.00 0.00 72 1026.5
20260509233804 55 25 5.0 8.0 0.00 0.00 0.00 72 1026.4
20260509233304 55 40 4.0 9.0 0.00 0.00 0.00 73 1025.8
20260509232805 55 45 4.0 7.0 0.00 0.00 0.00 73 1025.8
20260509231805 55 16 2.0 6.0 0.00 0.00 0.00 73 1025.8
20260509230805 54 18 5.0 12.0 0.00 0.00 0.00 73 1025.8
20260509230304 54 48 3.0 7.0 0.00 0.00 0.00 73 1025.8
20260509225804 54 47 3.0 7.0 0.00 0.00 0.00 73 1025.8
20260509225306 54 44 3.0 7.0 0.00 0.00 0.00 73 1025.8
20260509224305 54 33 5.0 10.0 0.00 0.00 0.00 73 1025.8
20260509223804 54 42 5.0 12.0 0.00 0.00 0.00 73 1025.8
20260509223304 54 34 3.0 12.0 0.00 0.00 0.00 73 1025.8
20260509222804 54 44 5.0 10.0 0.00 0.00 0.00 73 1025.8
20260509222307 54 33 4.0 8.0 0.00 0.00 0.00 73 1025.8
20260509221804 54 42 5.0 8.0 0.00 0.00 0.00 73 1025.8
20260509220804 54 46 5.0 8.0 0.00 0.00 0.00 73 1025.8
20260509220305 54 39 4.0 8.0 0.00 0.00 0.00 73 1025.8
20260509215805 54 38 4.0 9.0 0.00 0.00 0.00 72 1025.8
20260509215306 54 39 5.0 8.0 0.00 0.00 0.00 72 1025.8
20260509214805 54 46 5.0 8.0 0.00 0.00 0.00 72 1025.8
20260509214304 54 51 5.0 10.0 0.00 0.00 0.00 72 1025.8
20260509213804 54 42 4.0 10.0 0.00 0.00 0.00 72 1025.8
20260509213305 54 32 5.0 8.0 0.00 0.00 0.00 72 1025.8
20260509212804 54 47 4.0 8.0 0.00 0.00 0.00 72 1025.8
20260509212306 55 45 4.0 8.0 0.00 0.00 0.00 72 1025.8
20260509211804 54 47 5.0 9.0 0.00 0.00 0.00 72 1025.7
20260509211304 54 43 5.0 7.0 0.00 0.00 0.00 72 1025.3
20260509210805 55 53 5.0 8.0 0.00 0.00 0.00 72 1025.3
20260509210305 55 39 4.0 6.0 0.00 0.00 0.00 72 1025.3
20260509205805 55 47 6.0 12.0 0.00 0.00 0.00 72 1025.3
20260509204804 54 41 5.0 9.0 0.00 0.00 0.00 73 1025.3
20260509204305 54 30 5.0 9.0 0.00 0.00 0.00 73 1025.3
20260509203804 54 47 4.0 9.0 0.00 0.00 0.00 73 1025.3
20260509203304 54 38 4.0 12.0 0.00 0.00 0.00 73 1025.3
20260509202804 54 36 4.0 7.0 0.00 0.00 0.00 73 1025.3
20260509202307 54 30 5.0 9.0 0.00 0.00 0.00 73 1025.3
20260509201805 54 29 4.0 7.0 0.00 0.00 0.00 74 1025.3
20260509201305 53 40 5.0 9.0 0.00 0.00 0.00 74 1025.2
20260509200805 53 36 2.0 7.0 0.00 0.00 0.00 75 1025.2
20260509200304 53 22 2.0 3.0 0.00 0.00 0.00 76 1025.2
20260509195805 52 42 3.0 6.0 0.00 0.00 0.00 76 1025.2
20260509194804 52 52 2.0 3.0 0.00 0.00 0.00 76 1025.2
20260509194305 52 45 2.0 3.0 0.00 0.00 0.00 76 1025.2
20260509193805 52 46 3.0 5.0 0.00 0.00 0.00 76 1025.2
20260509193305 52 48 2.0 3.0 0.00 0.00 0.00 76 1025.2
20260509192805 52 45 2.0 3.0 0.00 0.00 0.00 76 1025.2
20260509192306 52 43 1.0 2.0 0.00 0.00 0.00 76 1025.2
20260509191805 52 36 2.0 5.0 0.00 0.00 0.00 76 1025.2
20260509191304 52 50 3.0 3.0 0.00 0.00 0.00 76 1025.4
20260509190805 52 49 3.0 3.0 0.00 0.00 0.00 77 1025.4
20260509190304 52 54 3.0 5.0 0.00 0.00 0.00 77 1025.4
20260509185306 51 60 3.0 5.0 0.00 0.00 0.00 78 1025.4
20260509184806 51 56 2.0 5.0 0.00 0.00 0.00 78 1025.4
20260509184305 51 61 3.0 3.0 0.00 0.00 0.00 78 1025.4
20260509183305 51 51 2.0 6.0 0.00 0.00 0.00 79 1025.4
20260509182805 51 74 2.0 3.0 0.00 0.00 0.00 80 1025.4
20260509182306 51 65 2.0 3.0 0.00 0.00 0.00 82 1025.4
20260509180805 49 60 3.0 5.0 0.00 0.00 0.00 87 1025.4
20260509180304 49 48 3.0 5.0 0.00 0.00 0.00 88 1025.4
20260509175306 48 56 2.0 3.0 0.00 0.00 0.00 90 1025.3
20260509174804 47 50 2.0 3.0 0.00 0.00 0.00 90 1025.7
20260509173805 47 48 2.0 3.0 0.00 0.00 0.00 91 1025.7
20260509172804 47 57 2.0 3.0 0.00 0.00 0.00 91 1025.7
20260509172306 46 52 2.0 3.0 0.00 0.00 0.00 91 1025.7
20260509171304 46 54 0.0 1.0 0.00 0.00 0.00 92 1025.7
20260509170804 46 54 0.0 2.0 0.00 0.00 0.00 92 1025.7
20260509165307 46 45 1.0 3.0 0.00 0.00 0.00 92 1025.7
20260509164305 46 66 1.0 2.0 0.00 0.00 0.00 91 1025.7
20260509163804 46 66 1.0 2.0 0.00 0.00 0.00 91 1025.7
20260509163305 45 66 1.0 2.0 0.00 0.00 0.00 91 1025.7
20260509162307 45 66 1.0 2.0 0.00 0.00 0.00 91 1025.9
20260509161806 45 66 1.0 2.0 0.00 0.00 0.00 90 1025.9
20260509161305 45 66 1.0 2.0 0.00 0.00 0.00 90 1025.9
20260509160825 45 66 1.0 2.0 0.00 0.00 0.00 90 1025.9
20260509160305 45 66 1.0 2.0 0.00 0.00 0.00 90 1025.9
20260509155805 45 66 1.0 1.0 0.00 0.00 0.00 90 1025.9
20260509155306 45 66 1.0 2.0 0.00 0.00 0.00 89 1025.9
20260509154305 46 66 0.0 1.0 0.00 0.00 0.00 89 1025.9
20260509153805 46 66 0.0 0.0 0.00 0.00 0.00 89 1025.9
20260509152804 46 66 0.0 0.0 0.00 0.00 0.00 89 1025.9
20260509152306 46 66 0.0 0.0 0.00 0.00 0.00 88 1025.9
20260509151805 46 66 0.0 1.0 0.00 0.00 0.00 88 1025.9
20260509151304 46 66 0.0 1.0 0.00 0.00 0.00 88 1026.2
20260509150305 46 66 0.0 1.0 0.00 0.00 0.00 87 1026.2
20260509145806 47 66 1.0 1.0 0.00 0.00 0.00 87 1026.2
20260509145306 47 66 0.0 1.0 0.00 0.00 0.00 87 1026.2
20260509144804 48 66 0.0 0.0 0.00 0.00 0.00 88 1026.2
20260509144305 48 66 0.0 0.0 0.00 0.00 0.00 88 1026.2
20260509143805 48 66 0.0 0.0 0.00 0.00 0.00 88 1026.0
20260509143306 48 66 0.0 1.0 0.00 0.00 0.00 88 1026.0
20260509142804 48 66 0.0 1.0 0.00 0.00 0.00 88 1026.0
20260509142307 48 66 0.0 2.0 0.00 0.00 0.00 88 1026.0
20260509141806 48 67 1.0 2.0 0.00 0.00 0.00 88 1026.0
20260509141305 48 56 2.0 3.0 0.00 0.00 0.00 87 1026.0
20260509140805 47 69 1.0 2.0 0.00 0.00 0.00 87 1026.0
20260509140305 48 69 1.0 2.0 0.00 0.00 0.00 86 1026.0
20260509135805 48 70 1.0 2.0 0.00 0.00 0.00 85 1026.0
20260509135306 48 71 1.0 3.0 0.00 0.00 0.00 85 1026.0
20260509134804 48 28 1.0 2.0 0.00 0.00 0.00 84 1026.0
20260509134305 48 14 0.0 0.0 0.00 0.00 0.00 83 1026.0
20260509133806 48 14 1.0 1.0 0.00 0.00 0.00 83 1026.0
20260509133304 48 14 0.0 1.0 0.00 0.00 0.00 83 1026.0
20260509132805 49 14 0.0 0.0 0.00 0.00 0.00 82 1026.0
20260509132307 49 14 0.0 0.0 0.00 0.00 0.00 82 1026.0
20260509131805 49 14 0.0 1.0 0.00 0.00 0.00 82 1026.0
20260509131306 49 14 0.0 1.0 0.00 0.00 0.00 82 1026.0
20260509130806 49 14 0.0 1.0 0.00 0.00 0.00 81 1026.0
20260509130306 50 14 0.0 0.0 0.00 0.00 0.00 81 1026.0
20260509125806 50 14 0.0 0.0 0.00 0.00 0.00 80 1026.0
20260509125307 50 14 0.0 1.0 0.00 0.00 0.00 80 1026.0
20260509124805 50 14 0.0 1.0 0.00 0.00 0.00 80 1026.0
20260509124305 50 14 1.0 2.0 0.00 0.00 0.00 79 1026.0
20260509123806 51 14 1.0 2.0 0.00 0.00 0.00 79 1026.0
20260509123306 51 14 1.0 1.0 0.00 0.00 0.00 79 1026.0
20260509122804 51 14 0.0 0.0 0.00 0.00 0.00 79 1026.0
20260509122306 52 14 0.0 0.0 0.00 0.00 0.00 78 1026.0
20260509121305 52 14 0.0 0.0 0.00 0.00 0.00 77 1026.0
20260509120805 52 14 0.0 0.0 0.00 0.00 0.00 77 1026.0
20260509120305 53 14 0.0 0.0 0.00 0.00 0.00 76 1026.0
20260509115805 53 14 0.0 0.0 0.00 0.00 0.00 75 1026.0
20260509114805 53 14 0.0 0.0 0.00 0.00 0.00 75 1025.6
20260509114304 54 14 0.0 0.0 0.00 0.00 0.00 74 1025.6
20260509113805 54 14 0.0 0.0 0.00 0.00 0.00 74 1025.6
20260509113304 54 14 0.0 0.0 0.00 0.00 0.00 74 1025.6
20260509112805 55 14 0.0 0.0 0.00 0.00 0.00 73 1025.6
20260509112307 55 14 0.0 0.0 0.00 0.00 0.00 73 1025.6
20260509111805 55 14 0.0 0.0 0.00 0.00 0.00 73 1025.6
20260509111305 56 14 0.0 1.0 0.00 0.00 0.00 72 1025.6
20260509110804 56 14 0.0 1.0 0.00 0.00 0.00 72 1025.6
20260509105805 57 10 1.0 1.0 0.00 0.00 0.00 71 1025.6
20260509105306 57 6 0.0 2.0 0.00 0.00 0.00 70 1025.6
20260509104805 58 357 1.0 2.0 0.00 0.00 0.00 69 1025.6
20260509104304 58 294 0.0 1.0 0.00 0.00 0.00 68 1025.6
20260509103805 59 294 1.0 1.0 0.00 0.00 0.00 67 1025.6
20260509103305 59 294 0.0 0.0 0.00 0.00 0.00 66 1025.6
20260509102804 60 294 0.0 1.0 0.00 0.00 0.00 66 1025.6
20260509101805 61 294 0.0 1.0 0.00 0.00 0.00 64 1025.6
20260509101305 61 294 0.0 1.0 0.00 0.00 0.00 63 1025.5
20260509100305 62 294 0.0 1.0 0.00 0.00 0.00 61 1025.5
20260509095306 63 294 0.0 1.0 0.00 0.00 0.00 59 1025.0
20260509094805 64 294 0.0 1.0 0.00 0.00 0.00 58 1025.0
20260509093806 66 294 0.0 0.0 0.00 0.00 0.00 56 1025.0
20260509093305 66 294 0.0 1.0 0.00 0.00 0.00 55 1025.0
20260509092805 66 294 0.0 1.0 0.00 0.00 0.00 52 1025.0
20260509092306 67 308 0.0 1.0 0.00 0.00 0.00 52 1025.0
20260509091805 67 57 0.0 1.0 0.00 0.00 0.00 51 1025.0
20260509091304 67 320 0.0 0.0 0.00 0.00 0.00 51 1025.0
20260509085805 67 8 0.0 1.0 0.00 0.00 0.00 50 1025.0
20260509085306 68 8 0.0 1.0 0.00 0.00 0.00 48 1025.0
20260509084805 68 8 0.0 1.0 0.00 0.00 0.00 48 1025.1
20260509084304 68 5 0.0 2.0 0.00 0.00 0.00 48 1025.1
20260509082307 69 22 1.0 3.0 0.00 0.00 0.00 47 1025.2
20260509081804 70 22 1.0 3.0 0.00 0.00 0.00 47 1025.2
20260509080805 70 48 2.0 6.0 0.00 0.00 0.00 44 1025.1
20260509080305 71 44 3.0 6.0 0.00 0.00 0.00 43 1025.1
20260509075805 71 9 3.0 3.0 0.00 0.00 0.00 44 1025.1
20260509075306 71 33 2.0 6.0 0.00 0.00 0.00 44 1025.1
20260509074305 71 20 2.0 5.0 0.00 0.00 0.00 43 1025.1
20260509073804 71 12 2.0 5.0 0.00 0.00 0.00 45 1025.1
20260509072805 71 41 3.0 6.0 0.00 0.00 0.00 45 1025.1
20260509072306 71 15 3.0 9.0 0.00 0.00 0.00 45 1025.1
20260509071805 72 340 3.0 6.0 0.00 0.00 0.00 44 1025.1
20260509071305 72 357 2.0 5.0 0.00 0.00 0.00 45 1025.1
20260509070805 72 32 3.0 6.0 0.00 0.00 0.00 45 1025.1
20260509070305 72 347 2.0 6.0 0.00 0.00 0.00 44 1025.1
20260509065805 71 31 3.0 7.0 0.00 0.00 0.00 44 1025.1
20260509065306 71 40 3.0 9.0 0.00 0.00 0.00 46 1025.1
20260509064805 71 51 3.0 6.0 0.00 0.00 0.00 45 1025.1
20260509064305 71 27 2.0 7.0 0.00 0.00 0.00 45 1025.1
20260509063304 71 358 2.0 7.0 0.00 0.00 0.00 46 1025.0
20260509062805 71 344 3.0 7.0 0.00 0.00 0.00 44 1025.0
20260509062306 71 22 3.0 9.0 0.00 0.00 0.00 45 1025.0
20260509061804 70 30 4.0 7.0 0.00 0.00 0.00 49 1025.0
20260509060805 71 55 4.0 10.0 0.00 0.00 0.00 47 1025.0
20260509060305 71 49 3.0 6.0 0.00 0.00 0.00 49 1025.0
20260509055805 71 52 2.0 6.0 0.00 0.00 0.00 49 1025.0
20260509054805 70 347 3.0 8.0 0.00 0.00 0.00 50 1025.0
20260509054305 70 29 4.0 8.0 0.00 0.00 0.00 49 1025.0
20260509053805 70 13 5.0 8.0 0.00 0.00 0.00 48 1025.3
20260509053305 70 352 3.0 12.0 0.00 0.00 0.00 49 1025.3
20260509052804 70 32 5.0 10.0 0.00 0.00 0.00 49 1025.3
20260509052307 69 351 3.0 7.0 0.00 0.00 0.00 52 1025.3
20260509051804 69 57 6.0 10.0 0.00 0.00 0.00 49 1025.3
20260509051304 69 32 5.0 9.0 0.00 0.00 0.00 50 1025.3
20260509050805 69 39 4.0 10.0 0.00 0.00 0.00 52 1025.3
20260509050305 70 72 6.0 12.0 0.00 0.00 0.00 51 1026.5
20260509045805 69 0 4.0 8.0 0.00 0.00 0.00 52 1026.5
20260509045306 69 36 3.0 9.0 0.00 0.00 0.00 53 1026.5
20260509044805 70 16 2.0 5.0 0.00 0.00 0.00 52 1026.5
20260509044305 69 45 3.0 7.0 0.00 0.00 0.00 52 1026.5
20260509043806 69 74 3.0 9.0 0.00 0.00 0.00 53 1026.5
20260509043304 68 93 6.0 12.0 0.00 0.00 0.00 52 1026.5
20260509042804 69 36 3.0 9.0 0.00 0.00 0.00 55 1026.5
20260509042306 69 22 3.0 12.0 0.00 0.00 0.00 53 1026.5
20260509041805 69 70 6.0 12.0 0.00 0.00 0.00 53 1027.0
20260509041304 69 358 2.0 5.0 0.00 0.00 0.00 53 1027.0
20260509040805 68 40 7.0 13.0 0.00 0.00 0.00 54 1027.0
20260509040305 67 34 7.0 12.0 0.00 0.00 0.00 54 1027.0
20260509035805 67 21 6.0 9.0 0.00 0.00 0.00 56 1027.8
20260509034804 67 14 5.0 12.0 0.00 0.00 0.00 58 1027.8
20260509033305 67 36 4.0 8.0 0.00 0.00 0.00 58 1027.8
20260509032805 65 65 5.0 7.0 0.00 0.00 0.00 59 1028.1
20260509032306 65 50 6.0 9.0 0.00 0.00 0.00 59 1028.1
20260509031304 65 24 7.0 12.0 0.00 0.00 0.00 59 1028.6
20260509030804 65 34 3.0 9.0 0.00 0.00 0.00 60 1028.6
20260509030305 64 52 5.0 10.0 0.00 0.00 0.00 61 1028.6
20260509025805 64 30 3.0 12.0 0.00 0.00 0.00 61 1028.6
20260509024805 63 45 5.0 8.0 0.00 0.00 0.00 63 1028.7
20260509024305 63 55 4.0 12.0 0.00 0.00 0.00 62 1028.7
20260509023305 62 357 6.0 12.0 0.00 0.00 0.00 62 1028.7
20260509022805 62 48 5.0 13.0 0.00 0.00 0.00 63 1028.7
20260509022306 62 355 5.0 13.0 0.00 0.00 0.00 63 1028.8
20260509021806 62 23 5.0 8.0 0.00 0.00 0.00 63 1028.8
20260509020805 62 6 6.0 10.0 0.00 0.00 0.00 63 1028.8
20260509020305 61 38 3.0 12.0 0.00 0.00 0.00 63 1028.9
20260509015805 61 35 8.0 14.0 0.00 0.00 0.00 64 1028.8
20260509015306 61 21 3.0 13.0 0.00 0.00 0.00 65 1028.8
20260509014805 60 42 9.0 15.0 0.00 0.00 0.00 64 1028.8
20260509014306 60 42 6.0 17.0 0.00 0.00 0.00 65 1028.9
20260509013805 60 43 10.0 20.0 0.00 0.00 0.00 64 1028.9
20260509013305 60 40 6.0 13.0 0.00 0.00 0.00 66 1029.0
20260509012804 59 41 5.0 12.0 0.00 0.00 0.00 66 1029.0
20260509012307 59 354 5.0 12.0 0.00 0.00 0.00 66 1029.1
20260509011805 59 7 5.0 10.0 0.00 0.00 0.00 66 1029.0